sat.trackr.live / text

‹ back to catalog

AEHF-5 (USA 292)

NORAD 44481 · 2019-051A

PAYLOAD ACTIVE UNKNOWN

§ Identity

Operator
Country
US
Launch date
2019-08-08
Launch site
AFETR
Launch vehicle
Mass (kg)
RCS (m²)

Purposes: comms

External: N2YO · Heavens-Above · Gunter

§ Orbital elements

Epoch: 2026-09-13T01:37:51.567744Z

Period
1,436.07 min
Inclination
1.3935°
Eccentricity
0.0029150
Mean motion
1.00273751 rev/d
Perigee alt
35,663.1 km
Apogee alt
35,909.0 km
Semi-major
42,164.2 km
B*
0.0000e+0
RAAN
343.4834°
Arg perigee
12.2512°
Mean anomaly
113.8701°
Rev number
2,614

§ Raw data

AEHF-5 (USA 292)1 44481U 19051A   26256.06795796 -.00000270  00000+0  00000+0 0  99952 44481   1.3935 343.4834 0029150  12.2512 113.8701  1.00273751 26143

JSON: /api/v1/satellites/44481 · /tle

For live sub-satellite position, see the globe view (requires WebGL).

§ Visibility from observer

Set your observer location to see the next 7 days of passes ≥ 10°. The values pass through the URL so the page stays shareable.

No JS? Fill the form by hand. The geolocation button needs JavaScript.